Weather in Kokpekty

Kazakhstan     48°45′15″N   82°23′08″E
temp.,
°C
wind,
m/s
gust,
m/s
humid.,
%
clouds,
%
prec.,
mm/h
press.,
hPa
HPBL,
m
17 april, sat
sat1700:00+9n11545 0.0 101611
03:00+8nnw11514 0.0 101510
06:00+7nw225060 0.0 101511
09:00+13nw2238100 0.0 1015255
12:00+17nw4527100 0.0 10151589
15:00+18nnw562883 0.0 10152581
18:00+16nnw574154 0.0 10161420
21:00+10nw59711 0.0 1019330
18 april, sun
sun1800:00+7nw59770 0.0 1020276
03:00+5wnw36810 0.0 1021159
06:00+4nw34770 0.0 102177
09:00+10nw23500 0.0 1020519
12:00+14w23375 0.0 10181146
15:00+17w3732100 0.0 10162330
18:00+18wnw4630100 0.0 10141274
21:00+14sse2451100 0.3 101599
19 april, mon
mon1900:00+10e225986 0.5 101430
03:00+8ene227015 0.3 101427
06:00+7ne117329 0.3 101415
09:00+11nw675697 0.0 1015699
12:00+11nw786337 0.0 1016878
15:00+9nnw896930 0.0 1016639
18:00+6nnw7863100 0.1 1017547
21:00+4nw6664100 0.0 1017360
20 april, tue
tue2000:00+3nw3466100 0.1 1016240
03:00+1nnw5678100 0.1 1014280
06:00−1nnw71290100 3.4 1014418
09:00−1nnw10136437 0.8 1017601
12:000nnw101152100 0.8 1018877
15:00+1nnw91045100 0.0 10181032
18:000nnw81048100 0.0 1019931
21:00−2nnw8134995 0.0 1021725
21 april, wed
wed2100:00−4nnw91451100 0.0 1020637
03:00−5nnw91450100 0.0 1021711
06:00−5nnw81454100 0.0 1022668
09:00−2nnw911441 0.0 1024833
12:00+1nnw910347 0.0 10241235
15:00+2nnw88314 0.0 10241396
18:00+2nw67337 0.0 10261334
21:00−1wnw47535 0.0 1027163